Other Surface Observations
Issued by NWS

Home | Current Version | Previous Version | Text Only | Print | Product List | Glossary On
Versions: 1 2 3 4 5 6 7 8 9 10 11 12 13 14 15 16 17 18 19 20 21 22 23 24 25 26 27 28 29 30 31 32 33 34 35 36 37 38 39 40 41 42 43 44 45 46 47 48 49 50
000
SXUS52 KTAE 020019
OSOTAE
OSOTAE
North Florida/South Alabama/Southwest Georgia Weather Roundup
National Weather Service Tallahassee Florida
800 PM EDT SAT AUG 01 2015

Note: "fair" indicates few or no clouds below 12,000 feet with no
significant weather and/or obstructions to visibility.

!FLZ017-115-028-034-025-020100
...North Florida...

CITY           SKY/WX    TMP DP  RH WIND       PRES   REMARKS
TALLAHASSEE    CLOUDY    84  76  76 CALM      29.83S HX  93
APALACHICOLA   CLOUDY    81  77  88 NE3       29.83R
PERRY          CLOUDY    77  77 100 SE5       29.85F
CROSS CITY       N/A     77  76  96 CALM      29.87R
JACKSONVILLE   MOCLDY    79  74  84 S9        29.87F
$$

!FLZ112-006-005-002-011-020100
...Florida Panhandle...

CITY           SKY/WX    TMP DP  RH WIND       PRES   REMARKS
MARIANNA       CLEAR     85  75  72 S3        29.81F HX  93
BONIFAY        FAIR      86  75  69 E3        29.82F HX  95
PANAMA CITY NW FAIR      85  76  74 SW7       29.82S HX  94
TYNDALL AFB    MOCLDY    81  77  86 CALM      29.84R
TYND DRONE APT MOCLDY    80  77  89 CALM      29.83R
DE FUNIAK SPR  FAIR      89  75  63 N3        29.83F HX  98
EGLIN AFB      PTCLDY    82  77  83 W3        29.82F HX  91
DESTIN         PTCLDY    86  75  69 VRB6      29.82S HX  95
HURLBURT       PTCLDY    86  75  69 W6        29.82S HX  95
CRESTVIEW      CLEAR     87  77  72 S7        29.84S HX  99
PENSACOLA      PTCLDY    81  74  79 W6        29.82F
$$

!ALZ063-066-020100
...South Alabama...

CITY           SKY/WX    TMP DP  RH WIND       PRES   REMARKS
DOTHAN         PTCLDY    83  75  77 NE3       29.87F HX  90
OZARK CAIRNS   PTCLDY    84  75  74 W3        29.84F HX  92
FT RUCKER HELI MOCLDY    81  75  82 CALM      29.83R
RUCKER HELI 3  MOCLDY    82  72  71 S8        29.86S
RUCKER HELI 2  FAIR      78  78 100 W5        29.83F THUNDER
FLORALA APT    CLEAR     88  75  66 CALM      29.84F HX  97
ANDALUSIA      PTCLDY    92  72  51 NE5       29.84S HX  99
TROY           LGT RAIN  82  74  76 SW9       29.86S
EUFALA         FAIR      80  75  84 CALM      29.85F
MOBILE         PTCLDY    86  69  56 N5        29.88R HX  90
$$

!GAZ120>161-020100
...Southwest and South Central Georgia...

CITY           SKY/WX    TMP DP  RH WIND       PRES   REMARKS
THOMASVILLE    MOCLDY    82  75  78 SE6       29.85R
BAINBRIDGE     CLEAR     84  79  84 SW3       29.83S HX  96
MOODY AFB      PTCLDY    82  76  84 E5        29.85R
VALDOSTA       PTCLDY    82  77  84 S7        29.85S HX  90
MOULTRIE       PTCLDY    82  75  78 SE5       29.85S
BLAKELY        PTCLDY    90  81  74 CALM      29.83F HX 108
ALBANY         MOCLDY    87  73  62 CALM      29.84F HX  94
TIFTON         FAIR      83  74  72 S6        29.85S HX  90
FITZGERALD     DRIZZLE   81  75  82 NE5       29.88F
CORDELE        FAIR      86  76  71 SE3       29.87R HX  96
AMERICUS       MOCLDY    77  77 100 NW7       29.90R
HOMERVILLE     CLOUDY    82  79  89 CALM      29.87R HX  93
$$

!GMZ750-755-770-775-020100
...Coastal and Buoy Obs...

STATION/POSITION TIME  TEMP    WIND        PRES    VSBY  WAVE
                       AIR SEA DIR/SP/G                  HT/PER
                 (UTC) (F)     (DEG/KT/KT) (MB)    (MI)  (FT/S)
KEATON BEACH     0000   79     200/ 10/ 11 1010.7F
CEDAR KEY        0000   79     230/ 15/ 20 1011.9S
C TOWER          0000   81     250/  7/  8 1010.1F
APALACHICOLA BUO 2350   82 85  230/ 17/ 21 1010.4F         6/ 7
PANAMA CITY BUOY 2350   82 86  270/ 16/ 17 1010.3R         5/ 7
MOBILE BUOY      2350   86 89  350/  4/  6 1011.3R         1/ 4
ORANGE BCH AL BU 2350   85 87  240/  4/  6 1009.8F         1/ 4
$$



USA.gov is the U.S. government's official web portal to all federal, state and local government web resources and services.